Terminal Aerodrome Forecast
Issued by NWS

Current Version | Previous Version | Graphics & Text | Print | Product List | Glossary On
Versions: 1 2 3 4 5 6 7 8 9 10 11 12 13 14 15 16 17 18 19 20 21 22 23 24 25 26
000
FTUS41 KRLX 201140
TAFCKB
TAF
KCKB 201140Z 2012/2112 00000KT 3SM -SHRA BR BKN050
      TEMPO 2012/2013 1SM BR SCT003
     FM201300 25003KT P6SM BKN050
     FM202000 27003KT P6SM VCSH BKN050
     FM202300 20003KT P6SM BKN150
     FM210600 00000KT 4SM BR SCT150
     FM210900 00000KT 1SM BR BKN001=

USA.gov is the U.S. government's official web portal to all federal, state and local government web resources and services.